Weather History for KVRB - January, 2014

Change the Weather History Date:

Monday, January 20, 2014

  Actual Average Record
Temperature  
Mean Temperature 58 °F 62 °F  
Max Temperature 74 °F 72 °F 86 °F (1963)
Min Temperature 41 °F 52 °F 23 °F (1977)
Degree Days  
Heating Degree Days 7 5  
Month to date heating degree days 115 100  
Since 1 July heating degree days 144 235  
Cooling Degree Days 0 2  
Month to date cooling degree days 53 40  
Year to date cooling degree days 53 40  
Growing Degree Days 8 (Base 50)    
Moisture  
Dew Point 47 °F    
Average Humidity 67    
Maximum Humidity 100    
Minimum Humidity 33    
Precipitation  
Precipitation 0.00 in 0.09 in 0.93 in (1978)
Month to date precipitation 3.12 1.61  
Year to date precipitation 3.12 1.61  
Sea Level Pressure  
Sea Level Pressure 30.12 in    
Wind  
Wind Speed 5 mph (West)    
Max Wind Speed 15 mph    
Max Gust Speed 21 mph    
Visibility 8 miles    
Events      
T = Trace of Precipitation, MM = Missing Value Source: NWS Daily Summary

Daily Weather History Graph

Daily Weather History Graph

Search for Another Location

Airport or City:

Trip Planner

Search our weather history database for the weather conditions in past years. The results will help you decide how hot, cold, wet, or windy it might be!

Date:

Astronomy

Jan. 20, 2014 Rise Set
Actual Time 7:12 AM EST 5:52 PM EST
Civil Twilight 6:47 AM EST 6:17 PM EST
Nautical Twilight 6:19 AM EST 6:46 PM EST
Astronomical Twilight 5:51 AM EST 7:14 PM EST
Moon 9:58 PM EST (1/20) 9:36 AM EST (1/20)
Length of Visible Light 11h 30m
Length of Day
10h 40m
Waning Gibbous, 83% of the Moon is Illuminated
Jan 20
Waning Gibbous
Jan 24
Last Quarter
Jan 30
New
Feb 6
First Quarter
Feb 14
Full

Hourly Weather History & Observations

Time (EST) Temp. Windchill Dew Point Humidity Pressure Visibility Wind Dir Wind Speed Gust Speed Precip Events Conditions
12:53 AM 52.0 °F - 48.0 °F 86% 30.14 in 10.0 mi SSW 3.5 mph - N/A   Clear
1:53 AM 48.0 °F - 46.9 °F 96% 30.13 in 10.0 mi Calm Calm - N/A   Clear
2:53 AM 46.9 °F - 46.0 °F 97% 30.13 in 10.0 mi WNW 3.5 mph - N/A   Clear
3:53 AM 45.0 °F 43.5 °F 45.0 °F 100% 30.14 in 10.0 mi WNW 3.5 mph - N/A   Clear
4:53 AM 44.1 °F 42.5 °F 44.1 °F 100% 30.14 in 3.0 mi WNW 3.5 mph - N/A   Clear
5:00 AM 42.8 °F 41.1 °F 42.8 °F 100% 30.15 in 1.0 mi WNW 3.5 mph - N/A   Clear
5:05 AM 42.8 °F 41.1 °F 42.8 °F 100% 30.15 in 4.0 mi WNW 3.5 mph - N/A   Clear
5:41 AM 44.6 °F 43.1 °F 44.6 °F 100% 30.15 in 1.8 mi West 3.5 mph - N/A   Clear
5:53 AM 45.0 °F - 45.0 °F 100% 30.15 in 3.0 mi Calm Calm - N/A   Clear
6:11 AM 44.6 °F - 42.8 °F 93% 30.16 in 2.0 mi Calm Calm - N/A   Clear
6:21 AM 44.6 °F - 42.8 °F 93% 30.16 in 10.0 mi Calm Calm - N/A   Clear
6:27 AM 42.8 °F - 42.8 °F 100% 30.16 in 1.5 mi Calm Calm - N/A   Clear
6:38 AM 42.8 °F - 42.8 °F 100% 30.16 in 4.0 mi Calm Calm - N/A   Clear
6:53 AM 42.1 °F - 42.1 °F 100% 30.16 in 10.0 mi Calm Calm - N/A   Clear
7:04 AM 42.8 °F - 42.8 °F 100% 30.16 in 2.0 mi Calm Calm - N/A   Mostly Cloudy
7:51 AM 44.6 °F - 44.6 °F 100% 30.17 in 9.0 mi Calm Calm - N/A   Clear
7:53 AM 45.0 °F 43.5 °F 45.0 °F 100% 30.17 in 9.0 mi WSW 3.5 mph - N/A   Clear
8:53 AM 55.0 °F - 54.0 °F 96% 30.19 in 10.0 mi WSW 4.6 mph - N/A   Clear
9:53 AM 60.1 °F - 53.1 °F 78% 30.19 in 10.0 mi Calm Calm - N/A   Clear
10:53 AM 63.0 °F - 52.0 °F 67% 30.18 in 10.0 mi WSW 5.8 mph - N/A   Clear
11:53 AM 66.9 °F - 50.0 °F 54% 30.14 in 10.0 mi West 8.1 mph - N/A   Clear
12:53 PM 70.0 °F - 50.0 °F 49% 30.10 in 10.0 mi West 11.5 mph - N/A   Clear
1:53 PM 70.0 °F - 50.0 °F 49% 30.06 in 10.0 mi SW 8.1 mph - N/A   Clear
2:53 PM 73.9 °F - 42.1 °F 32% 30.04 in 10.0 mi WNW 11.5 mph - N/A   Clear
3:53 PM 73.0 °F - 44.1 °F 35% 30.04 in 10.0 mi WNW 10.4 mph - N/A   Clear
4:53 PM 72.0 °F - 44.1 °F 37% 30.05 in 10.0 mi West 12.7 mph - N/A   Clear
5:53 PM 66.9 °F - 46.0 °F 47% 30.05 in 10.0 mi WNW 3.5 mph - N/A   Clear
6:53 PM 59.0 °F - 46.9 °F 64% 30.05 in 10.0 mi Calm Calm - N/A   Clear
7:53 PM 55.9 °F - 48.0 °F 75% 30.06 in 10.0 mi Calm Calm - N/A   Clear
8:53 PM 57.9 °F - 50.0 °F 75% 30.07 in 10.0 mi West 3.5 mph - N/A   Partly Cloudy
9:53 PM 59.0 °F - 51.1 °F 75% 30.09 in 10.0 mi WSW 3.5 mph - N/A   Clear
10:53 PM 59.0 °F - 53.1 °F 81% 30.08 in 10.0 mi West 4.6 mph - N/A   Clear
11:53 PM 55.9 °F - 52.0 °F 87% 30.06 in 10.0 mi West 3.5 mph - N/A   Clear